Theta_e
303 302 302 301 302 303 304 305 305 306 305 306 305 304 304 305 305 301 299 300 293 290 291 295 295 292 292 289 285 289 289 289 288 284 285 285 285 288 287 293 293 291 288 289 286 285 287 303 303 299 302 304 306 306
302 302 302 302 303 303 304 304 305 306 306 306 305 305 305 305 305 303 295 302 301 295 291 293 296 296 295 294 291 289 289 290 293 287 288 290 287 289 288 284 297 292 295 292 293 293 299 306 305 307 305 305 306 305
302 301 300 301 302 303 303 304 305 305 306 307 304 305 306 305 305 302 297 298 298 293 287 287 288 292 295 296 296 287 289 296 296 296 296 291 288 292 288 289 292 297 299 295 296 299 300 305 305 306 306 307 309 308
301 300 300 301 302 302 303 304 304 305 306 307 305 305 305 305 305 303 296 299 298 290 282 285 294 291 295 295 295 294 293 293 292 297 296 291 290 295 291 293 294 298 299 296 295 298 301 303 307 306 307 308 310 310
301 300 300 301 302 302 303 304 304 305 305 306 306 306 306 305 304 302 301 299 297 290 282 284 289 293 296 294 295 295 293 290 289 289 291 292 294 293 294 295 293 299 297 297 295 299 301 302 307 307 307 309 310 311
302 301 301 301 301 302 303 304 304 304 304 304 305 306 305 304 304 296 288 294 295 294 285 277 287 290 297 294 293 293 292 292 292 294 290 295 299 293 291 292 298 300 303 301 300 304 302 305 309 308 308 309 311 311
302 301 301 301 301 303 303 303 304 304 304 304 304 304 304 304 299 292 290 296 300 295 288 284 282 291 296 293 292 292 298 296 295 295 291 293 294 296 291 288 296 298 303 306 306 308 306 308 305 308 309 310 311 312
302 302 301 301 302 303 303 303 303 303 304 304 305 304 304 302 297 293 299 304 300 294 294 286 285 288 298 293 291 298 294 295 295 293 296 296 296 296 288 294 297 300 303 306 307 308 309 310 310 310 309 310 310 310
302 302 302 302 302 303 303 303 303 304 304 304 305 303 296 293 289 292 303 302 297 293 287 288 284 283 295 291 295 294 296 289 293 292 292 293 290 288 292 295 298 299 302 304 307 308 310 309 307 308 309 310 310 310
304 303 303 303 303 303 303 303 303 303 302 301 296 291 284 292 302 301 292 288 286 286 291 286 291 287 292 292 288 291 293 290 287 291 298 292 289 295 296 297 298 300 302 307 305 304 306 306 306 305 307 309 312 312
304 304 304 303 303 303 303 303 303 302 299 291 288 286 292 300 293 290 286 281 282 282 288 290 290 288 294 287 287 294 288 287 285 288 290 290 289 296 297 298 303 304 305 306 307 306 307 307 307 306 307 308 309 311
303 304 305 304 304 303 303 304 303 294 291 294 296 298 296 292 287 284 279 282 282 281 288 289 290 292 291 294 290 292 287 288 285 292 290 287 294 299 300 302 303 303 303 303 303 303 304 306 306 305 305 306 307 310
303 303 303 304 304 303 304 304 304 303 298 298 295 291 284 283 282 281 281 280 282 287 288 289 288 292 294 293 291 289 286 285 295 287 287 292 295 298 301 302 303 304 302 302 301 301 303 303 303 302 302 302 304 305
302 302 303 303 304 303 303 304 304 300 293 289 286 281 282 280 283 287 287 288 290 288 288 290 288 290 288 287 289 286 290 290 285 284 286 293 295 297 301 302 300 300 301 302 303 303 303 303 301 302 303 304 305 304
301 302 302 302 302 303 303 303 302 295 291 289 285 281 284 288 290 289 289 288 289 289 288 286 286 287 285 285 288 287 283 284 286 285 292 295 296 298 298 300 303 303 301 301 301 302 302 303 303 302 302 302 303 305
301 301 296 301 302 302 303 299 296 295 290 288 287 286 289 288 288 287 288 288 289 289 288 288 285 284 283 285 285 284 284 284 286 293 296 298 298 298 301 303 303 303 301 300 299 298 299 299 299 300 299 300 301 303
300 292 300 301 302 302 301 294 292 290 285 285 284 288 287 288 287 288 288 288 290 287 283 286 284 283 287 285 285 286 286 287 293 296 298 299 298 298 301 301 300 300 299 299 299 298 297 296 296 297 296 296 297 299
291 294 300 301 301 297 293 293 288 285 284 284 283 286 287 288 288 289 291 291 289 288 286 286 290 285 284 283 284 287 292 295 298 298 299 300 300 299 299 299 298 298 297 297 297 296 295 295 294 293 294 295 296 296
296 298 301 302 300 292 292 290 288 282 283 286 287 287 287 288 290 291 290 290 290 290 288 287 286 284 284 289 289 290 292 294 296 298 299 301 301 300 299 298 298 297 296 296 295 294 293 294 293 293 294 294 293 293
300 300 301 302 300 291 289 286 290 284 281 285 288 287 287 288 290 291 291 290 289 288 285 283 284 285 286 289 291 291 292 295 297 296 297 300 300 298 297 296 296 296 295 296 295 293 294 294 294 293 293 293 293 293
297 298 300 298 295 293 291 288 286 281 283 285 288 286 284 287 288 288 288 290 288 282 284 287 288 289 290 291 292 291 291 293 292 295 296 295 296 296 296 297 298 296 295 295 295 294 295 294 293 294 293 293 293 293
294 300 294 296 290 288 285 289 285 288 285 287 285 285 280 279 282 286 288 286 286 287 288 288 289 290 290 291 292 292 292 293 294 294 293 294 293 294 294 294 297 297 297 296 295 294 294 294 294 294 294 293 293 293
297 295 289 289 285 281 282 287 285 284 282 283 282 282 281 279 285 289 281 286 287 291 291 289 290 292 291 294 295 294 293 293 293 293 293 293 294 294 295 295 296 298 297 297 296 295 295 291 292 294 294 294 294 293
296 288 285 282 281 279 283 282 279 280 280 280 279 281 281 281 286 285 283 287 289 291 292 292 291 291 292 292 291 292 292 291 292 294 295 294 293 293 293 294 295 296 296 298 298 297 296 295 293 294 294 294 294 293
280 279 279 274 281 282 281 281 282 281 281 281 281 280 280 281 279 283 284 287 287 288 290 292 291 291 289 290 292 291 293 292 292 292 293 293 293 292 293 293 294 295 297 297 298 298 297 296 296 296 297 294 293 294
273 277 277 280 279 281 279 280 281 281 282 282 283 281 278 279 281 283 287 289 287 287 291 293 292 290 290 291 292 292 292 292 291 291 291 293 293 293 292 292 293 295 298 297 297 298 298 296 296 296 297 296 290 296
272 276 279 286 278 282 279 280 280 283 284 281 280 283 282 280 281 283 287 289 289 292 297 295 291 290 292 292 293 296 295 294 293 293 292 293 292 292 292 291 292 294 295 297 299 298 298 297 296 298 299 301 300 298
280 282 280 277 280 276 281 280 282 281 281 283 280 280 279 279 278 286 288 292 293 297 294 292 292 292 291 292 292 290 290 292 295 293 292 292 292 291 291 292 293 287 294 293 293 298 297 297 297 297 297 297 298 299
280 279 283 280 280 279 279 280 281 283 285 282 278 277 281 286 288 288 290 293 296 296 295 292 292 292 290 289 288 288 287 287 289 287 286 285 286 287 289 289 291 293 294 294 288 287 290 295 296 297 297 298 298 297
281 283 278 281 280 279 281 283 282 283 283 283 282 282 283 284 287 288 287 291 290 290 292 292 292 292 290 287 285 284 285 285 285 285 284 284 285 286 287 288 289 290 291 292 293 294 288 294 293 296 296 293 293 289
282 282 280 278 281 282 283 283 283 282 282 281 281 279 281 282 286 286 286 286 287 288 288 288 286 286 286 285 284 284 283 284 284 284 283 284 284 285 286 286 287 288 289 289 288 287 288 292 290 289 289 290 291 290
281 281 281 278 278 280 282 281 279 280 280 280 281 280 280 280 282 284 284 284 286 286 286 287 285 284 285 285 285 284 284 285 285 284 283 282 282 283 284 284 286 288 287 287 287 286 285 284 284 284 284 284 286 288
276 280 279 279 273 276 279 278 274 276 276 270 279 280 280 279 279 281 284 284 285 284 284 284 285 285 285 285 284 283 284 286 285 284 283 280 278 280 282 282 283 285 285 285 285 284 284 284 283 283 283 283 284 284
Wind_Speed
24 22 23 25 26 26 27 25 25 24 15 16 10 4 3 11 15 4 1 2 2 1 3 4 3 0 0 2 4 2 3 2 1 6 5 5 4 10 6 6 10 9 8 6 2 3 9 5 5 13 8 3 6 8
23 22 20 23 24 25 25 24 25 25 25 8 9 5 2 10 11 5 1 0 2 1 3 2 4 4 2 2 3 1 2 2 3 3 3 4 3 1 11 13 2 10 8 9 11 7 4 13 11 13 8 7 7 8
25 22 21 21 23 24 25 24 24 22 24 16 4 4 7 11 11 2 2 2 2 2 4 2 6 3 0 5 4 3 2 1 1 2 2 2 3 2 3 14 5 3 3 5 4 6 6 13 4 5 5 6 5 5
21 20 21 21 22 23 24 24 22 20 21 16 6 2 3 5 8 2 2 3 1 1 1 5 1 4 3 3 6 5 4 2 0 2 1 2 2 0 3 4 7 7 8 7 3 2 4 4 10 6 6 3 6 6
20 20 21 20 21 22 22 23 21 16 18 20 11 12 8 11 7 4 2 2 1 3 2 5 7 3 5 4 6 6 5 2 1 2 3 3 2 1 3 2 5 4 6 9 9 8 8 8 15 9 10 9 8 8
18 18 20 20 20 20 20 20 20 18 17 17 17 10 8 6 1 2 3 3 2 1 1 3 4 4 4 2 6 5 4 3 2 2 3 3 2 2 1 3 8 4 6 6 6 14 9 6 17 14 10 10 8 8
19 17 19 20 20 20 19 18 18 19 18 15 12 11 9 6 2 2 2 3 3 1 1 4 5 3 1 2 2 2 3 3 3 3 4 4 4 6 4 7 10 14 17 19 11 8 3 6 8 14 12 13 9 6
18 18 18 19 19 19 18 18 19 20 20 17 11 9 8 8 3 2 2 4 2 1 1 3 4 4 2 2 2 3 3 3 3 3 2 3 4 4 7 12 13 13 17 15 13 8 8 9 8 8 6 8 9 7
18 18 17 17 18 18 17 17 19 21 20 14 10 5 3 4 2 4 8 4 2 1 3 2 2 3 1 2 2 3 2 3 3 4 4 4 3 6 6 3 5 8 9 15 7 6 10 14 11 9 9 7 8 7
18 17 16 17 17 17 17 17 19 21 18 10 5 4 3 2 10 7 3 3 3 2 2 3 2 3 1 1 1 2 3 3 3 5 2 5 4 4 6 9 9 13 17 8 8 10 11 12 10 8 8 6 7 8
22 19 17 17 17 17 17 17 17 19 8 5 4 2 4 10 3 2 3 2 2 3 1 3 4 4 1 3 3 2 2 3 3 3 3 3 1 2 8 15 13 13 13 7 5 6 4 9 8 8 7 6 5 6
22 21 18 16 16 17 18 18 17 3 1 4 4 4 3 3 2 2 2 3 0 3 3 3 3 2 3 4 3 2 2 1 4 2 2 2 3 2 4 13 8 8 3 10 2 7 6 8 9 10 7 6 5 6
23 21 21 19 17 18 21 21 18 10 3 0 1 2 4 4 4 3 4 4 4 3 3 5 5 3 3 2 2 3 3 3 3 1 0 3 4 5 9 7 6 4 4 4 7 8 9 9 8 10 9 6 7 7
24 23 22 20 16 19 23 20 15 3 3 3 4 5 4 4 3 3 4 5 5 4 7 7 3 2 2 3 1 4 3 3 4 4 4 4 6 3 8 6 1 7 8 8 8 9 9 9 9 8 8 7 6 6
25 27 22 11 19 21 21 17 7 2 3 4 4 5 3 3 4 5 6 4 4 4 3 3 2 0 2 2 3 4 5 3 3 2 3 6 8 4 7 6 9 8 7 9 6 9 9 9 9 8 7 6 6 5
26 20 4 15 24 23 19 6 3 2 3 3 3 3 4 4 5 4 3 4 3 4 2 1 3 4 4 2 3 4 6 4 4 3 4 8 12 10 11 9 9 7 7 9 8 8 9 10 8 6 7 7 6 6
22 4 10 23 25 20 10 3 3 4 3 3 3 3 3 4 5 5 3 4 3 4 3 3 5 3 4 4 4 5 3 3 4 7 7 10 9 9 10 11 7 7 7 7 7 9 8 7 7 8 9 5 6 5
4 7 20 23 17 5 4 4 3 3 4 2 2 5 3 3 4 5 4 3 4 3 3 3 0 5 4 5 4 5 4 3 5 5 5 6 7 7 6 7 6 7 8 8 8 6 7 9 9 5 6 6 4 5
12 15 20 18 4 2 3 5 4 2 3 3 4 3 3 5 4 5 4 4 2 1 2 3 4 3 3 3 3 2 3 3 3 4 3 4 8 6 7 7 7 7 8 6 7 5 5 6 4 4 4 4 3 4
15 13 8 6 2 3 4 4 2 2 3 4 3 5 4 4 5 4 4 4 3 3 6 4 1 3 2 3 2 3 1 1 1 2 6 6 6 6 6 5 4 3 4 5 5 6 4 4 4 4 4 4 4 4
9 5 9 3 3 4 2 2 3 2 3 3 3 4 4 4 4 5 5 5 5 3 4 3 3 3 5 4 3 2 2 2 2 1 2 2 4 4 4 4 4 4 4 4 4 4 5 4 3 3 4 4 4 3
4 9 3 4 3 5 2 1 2 3 2 3 4 3 3 4 4 4 4 6 3 3 3 4 6 4 5 7 6 5 4 3 4 3 5 4 4 4 4 4 4 4 4 4 4 3 3 2 3 4 4 4 4 4
7 4 3 4 4 5 5 3 3 4 2 5 5 4 4 4 2 2 4 2 2 3 5 4 7 5 5 3 5 6 7 5 4 4 4 4 3 4 5 5 4 4 5 3 2 3 3 3 4 4 3 4 4 4
3 3 4 3 2 4 4 5 2 4 4 5 4 5 5 3 4 4 3 4 4 4 7 11 7 5 5 5 5 5 5 4 4 5 5 5 4 5 4 4 4 4 3 3 3 3 3 3 2 3 3 4 4 3
5 7 5 6 2 4 4 6 5 4 4 3 5 4 5 4 3 3 1 4 4 4 6 7 6 5 4 4 3 4 5 4 4 5 5 2 1 3 4 4 5 5 5 4 4 3 2 2 2 2 2 2 3 3
3 5 3 1 3 3 2 3 4 3 3 4 4 4 4 4 4 3 1 3 4 3 7 7 6 5 4 3 4 5 5 4 1 5 4 4 5 3 3 4 4 5 7 4 4 3 2 1 1 2 1 2 2 2
2 3 2 1 2 1 2 2 1 2 4 3 3 4 4 3 1 3 3 2 2 3 5 4 3 2 2 5 4 5 6 6 6 6 3 5 7 6 5 4 4 4 7 6 5 5 4 4 2 1 1 1 1 3
4 2 1 3 1 1 1 1 0 1 2 3 2 2 3 4 4 3 3 2 2 3 4 1 3 3 4 5 6 6 4 5 3 3 2 3 5 7 8 6 5 8 5 6 5 4 4 3 2 1 1 1 1 1
3 2 2 2 2 1 3 4 3 3 2 2 2 3 4 3 2 2 3 2 3 3 6 1 2 3 4 4 6 7 8 8 8 8 7 5 6 6 10 8 8 7 6 6 6 3 4 3 1 1 1 2 3 4
3 4 3 2 3 3 4 5 4 4 3 4 3 3 4 3 4 1 3 3 3 3 2 3 3 3 2 2 4 8 8 7 8 7 5 5 5 7 7 7 8 8 7 8 7 6 6 3 2 3 3 2 2 1
3 3 2 3 5 5 5 3 2 1 2 4 4 5 7 4 2 1 1 1 3 3 5 5 5 5 3 4 4 3 5 6 6 8 5 3 4 5 6 6 6 6 6 7 8 8 7 5 5 4 4 5 6 5
4 6 5 4 5 4 0 3 3 3 3 3 7 4 3 1 4 3 2 1 1 2 4 6 4 2 4 4 4 5 6 5 6 6 7 4 5 6 6 6 5 7 8 8 8 9 11 10 8 9 7 8 8 8
1 2 2 0 3 3 3 2 2 4 3 3 7 5 5 5 6 2 2 3 2 4 5 5 5 4 6 6 5 3 4 5 7 7 7 5 4 5 6 6 6 7 8 7 7 9 10 12 10 11 10 11 9 8
Wind_Direction
338 338 342 343 342 344 350 352 352 354 345 355 359 326 224 187 179 146 119 239 153 264 237 257 289 181 201 93 143 208 58 301 105 177 174 214 212 209 262 215 172 160 149 189 118 188 246 168 111 159 199 211 191 184
339 341 348 344 343 346 349 350 350 352 356 333 350 2 340 161 175 118 102 360 37 269 264 306 276 252 247 170 154 98 197 218 234 172 198 174 284 271 201 236 233 192 183 185 186 203 228 181 172 208 164 160 194 178
346 354 350 345 345 347 349 351 347 352 354 11 86 73 84 128 172 79 115 101 32 279 306 320 227 300 160 208 164 137 275 322 144 269 315 208 203 33 262 216 243 240 156 150 127 208 203 192 219 139 158 159 143 168
350 351 348 347 347 347 349 349 351 357 9 23 42 353 26 157 178 171 125 173 224 72 333 286 359 293 276 194 186 156 147 40 21 292 306 219 235 356 260 304 250 200 150 173 229 315 44 288 214 162 153 188 145 144
344 347 346 347 347 347 349 351 359 9 12 18 29 45 86 95 61 48 43 14 49 105 277 284 308 260 282 216 181 136 122 98 353 314 229 212 247 310 279 297 257 212 176 182 221 174 160 205 212 184 165 184 178 162
339 343 346 347 346 345 350 354 360 3 11 20 24 49 54 45 19 86 15 323 305 101 73 320 276 279 355 116 142 155 142 152 211 240 239 205 208 140 275 262 260 288 298 308 233 179 184 196 216 173 168 172 186 173
343 344 346 348 347 345 356 356 354 355 350 349 0 8 355 345 44 94 209 254 11 62 304 294 312 292 150 138 139 142 161 212 220 227 216 199 201 187 197 229 265 319 317 307 277 127 99 172 197 180 180 185 154 180
340 343 347 346 345 347 354 351 346 341 336 329 316 325 329 356 39 15 288 310 177 289 263 291 278 317 164 172 216 175 194 190 226 249 198 198 161 213 236 233 241 293 310 282 227 252 188 127 124 152 132 136 150 170
334 337 340 340 342 342 344 343 341 337 338 331 321 343 18 36 8 257 295 47 57 146 299 270 315 304 278 266 150 211 220 186 220 227 215 125 236 230 244 308 295 297 288 297 262 158 138 126 144 151 132 153 148 165
338 330 332 336 337 336 338 339 340 336 338 339 23 33 339 269 305 319 4 19 14 318 221 244 260 259 274 254 238 264 208 215 219 218 197 200 219 234 297 312 286 278 280 271 207 121 128 109 150 138 141 153 162 167
340 333 325 329 331 330 332 333 338 338 11 22 11 326 273 309 9 41 332 42 297 311 276 270 244 268 290 222 228 249 222 199 239 202 242 191 241 186 347 310 283 258 234 202 138 76 67 111 124 116 114 121 129 117
336 339 327 321 323 324 326 328 337 11 219 267 296 281 285 343 12 5 280 311 313 271 235 253 316 260 272 213 237 229 258 237 253 208 229 184 53 121 142 257 268 237 50 68 32 82 70 83 107 101 92 92 87 95
331 331 329 317 315 318 330 327 328 316 353 287 229 304 25 323 6 344 355 334 331 304 282 329 324 298 284 14 300 311 265 252 262 4 181 68 17 13 288 318 332 46 77 70 52 66 80 80 65 85 89 87 102 92
324 324 324 317 312 326 330 334 337 18 69 50 13 8 27 346 3 314 319 297 274 265 293 313 249 257 319 1 288 304 308 314 331 332 46 359 336 243 233 259 31 358 22 57 51 61 83 79 69 59 68 72 84 84
322 321 319 299 329 335 333 333 355 41 72 47 40 3 346 298 268 274 275 280 258 259 308 308 278 196 301 21 14 305 327 20 345 33 334 337 351 17 126 87 60 45 34 47 28 58 61 79 85 69 43 48 57 70
323 321 293 321 330 334 332 350 14 24 45 63 61 338 289 302 319 302 296 287 281 300 284 320 342 24 355 349 310 350 337 355 340 343 339 359 15 26 54 65 57 56 47 53 43 50 51 47 51 75 55 28 25 29
322 249 309 323 325 328 345 31 21 44 81 36 319 262 244 251 265 271 286 266 312 358 358 22 12 347 300 351 8 350 2 313 328 14 4 9 357 10 44 48 35 46 54 53 54 43 49 40 40 48 52 36 7 14
255 285 313 315 325 334 346 28 57 54 9 305 331 293 269 234 266 288 294 297 346 357 26 90 202 0 9 348 351 331 311 1 38 26 19 350 1 21 43 66 49 43 44 37 42 52 55 50 48 35 10 13 28 24
281 295 299 309 318 62 20 340 62 28 262 276 269 280 286 278 254 268 281 297 252 236 76 47 56 330 319 297 292 322 317 2 36 332 315 1 26 27 37 32 32 37 46 41 48 51 50 52 58 38 19 21 40 23
308 297 305 329 6 37 11 337 75 66 309 276 304 327 293 289 303 309 321 353 12 30 31 45 321 272 266 279 275 288 324 89 61 19 6 3 18 15 26 37 35 28 51 61 59 50 40 41 31 22 36 38 41 20
333 317 341 31 36 54 118 345 336 195 299 321 307 342 300 339 358 357 352 330 34 32 1 336 305 277 275 262 287 287 327 49 92 158 174 352 348 22 16 4 14 41 54 42 56 39 45 48 19 20 44 39 42 52
277 339 344 349 38 352 47 264 187 295 342 278 332 359 352 359 336 353 311 30 22 317 341 320 318 314 351 9 337 357 344 72 78 61 28 35 32 9 7 356 21 23 32 28 23 62 53 27 49 46 47 32 33 42
320 2 360 17 16 31 272 22 21 358 2 310 346 1 345 339 276 322 58 343 306 316 315 299 308 313 305 3 5 11 19 42 52 57 53 47 40 21 18 25 19 28 20 7 44 33 33 32 64 75 75 59 54 48
346 31 21 20 44 303 347 345 352 4 343 8 359 332 335 307 329 56 49 317 283 308 348 351 350 346 337 9 17 340 347 14 45 35 22 20 20 15 14 14 23 28 0 321 42 35 33 59 78 74 72 79 68 68
47 320 65 337 340 12 355 344 340 15 336 342 350 323 340 357 48 64 59 303 320 325 336 344 347 0 332 315 314 334 353 32 76 73 3 35 61 6 16 16 19 16 353 9 358 356 348 16 39 101 120 110 130 119
73 292 83 284 299 49 325 343 344 340 321 330 354 297 357 356 40 38 337 288 290 310 336 341 330 329 340 345 321 340 339 334 69 83 19 13 32 63 62 48 14 344 4 348 336 11 10 313 293 299 338 278 267 227
55 304 283 247 140 264 354 348 317 7 6 358 309 332 338 3 309 255 278 244 254 292 313 311 290 284 331 334 332 337 335 14 69 96 98 61 52 38 34 35 12 320 318 334 357 17 41 40 41 126 243 280 294 244
211 175 157 276 7 96 148 165 238 224 250 245 14 317 287 212 247 261 232 270 296 304 306 15 33 42 49 32 14 352 348 354 69 90 62 56 61 46 18 1 339 319 341 13 359 10 24 42 62 69 126 164 271 305
230 240 141 314 339 257 216 185 220 234 209 125 182 254 260 256 267 271 289 229 199 85 284 340 57 77 64 56 44 34 28 22 47 58 48 20 354 351 353 349 345 346 350 349 350 5 326 303 307 48 19 9 9 25
249 167 123 195 184 231 244 183 211 227 213 205 220 291 295 276 251 228 261 251 281 288 331 41 31 48 48 54 70 53 35 35 43 47 36 22 347 315 324 337 343 346 349 353 351 342 349 9 26 20 21 7 14 3
157 136 162 173 223 233 226 223 258 228 232 237 226 205 254 257 262 256 236 225 177 134 90 66 42 24 39 42 50 77 65 34 26 33 22 343 324 326 336 338 342 344 356 5 10 11 0 6 5 356 3 3 340 337
181 195 188 220 254 267 315 203 228 234 251 248 273 246 284 219 240 232 295 348 195 132 121 130 145 106 90 88 78 73 75 66 46 34 24 14 3 351 349 347 348 14 21 27 25 21 22 24 22 19 13 12 9 1
281 203 193 256 339 293 259 143 289 264 267 262 267 251 214 193 226 210 342 13 158 141 124 117 121 120 100 88 83 75 66 66 57 47 39 25 17 9 17 11 10 28 37 29 27 27 28 28 26 19 16 12 10 8